When you browse on this site, cookies collect data to enhance your experience and personalize the content and advertising you see.
Visit our Privacy Policy to learn more. By continuing to use the site, you agree to this use of cookies and data.
  • In Österreich
  • Länderverzeichnis
  • Für 7 Tage
  • Wassertemperatur
  • Wetterkarte
  • News
  • Widgets
  • user-avatar
    Anmelden

    Stündliche Wetter Faru

    Heute, 4 April, Samstag

    Zeit Temperatur Niederschläge Wind Luftdruck Luftfeuchtigkeit
    00:00 +11°C° 0 mm 8 m/S 757 mmHg 83%
    01:00 +11°C° 0 mm 9 m/S 757 mmHg 82%
    02:00 +11°C° 0 mm 10 m/S 757 mmHg 81%
    03:00 +11°C° 0 mm 9 m/S 757 mmHg 81%
    04:00 +11°C° 0 mm 9 m/S 757 mmHg 81%
    05:00 +10°C° 0 mm 8 m/S 757 mmHg 82%
    06:00 +11°C° 0 mm 9 m/S 757 mmHg 80%
    07:00 +12°C° 0 mm 9 m/S 757 mmHg 78%
    08:00 +14°C° 0 mm 10 m/S 757 mmHg 76%
    09:00 +14°C° 0 mm 10 m/S 757 mmHg 76%
    10:00 +16°C° 0 mm 10 m/S 758 mmHg 75%
    11:00 +16°C° 0 mm 10 m/S 758 mmHg 75%
    12:00 +16°C° 0 mm 9 m/S 758 mmHg 77%
    13:00 +16°C° 0 mm 9 m/S 757 mmHg 79%
    14:00 +16°C° 0 mm 8 m/S 757 mmHg 80%
    15:00 +16°C° 0 mm 8 m/S 757 mmHg 81%
    16:00 +16°C° 0 mm 8 m/S 757 mmHg 81%
    17:00 +16°C° 0 mm 8 m/S 757 mmHg 82%
    18:00 +15°C° 0 mm 8 m/S 758 mmHg 86%
    19:00 +15°C° 0 mm 8 m/S 758 mmHg 90%
    20:00 +14°C° 0 mm 7 m/S 759 mmHg 94%
    21:00 +14°C° 0 mm 7 m/S 759 mmHg 94%
    22:00 +14°C° 0 mm 7 m/S 759 mmHg 93%
    23:00 +14°C° 0 mm 7 m/S 759 mmHg 93%

    Morgen, 5 April, Sonntag

    Zeit Temperatur Niederschläge Wind Luftdruck Luftfeuchtigkeit
    00:00 +14°C° 0 mm 7 m/S 759 mmHg 93%
    01:00 +15°C° 0 mm 7 m/S 759 mmHg 94%
    02:00 +15°C° 0 mm 6 m/S 758 mmHg 94%
    03:00 +15°C° 0 mm 6 m/S 758 mmHg 94%
    04:00 +15°C° 0 mm 6 m/S 759 mmHg 94%
    05:00 +15°C° 0 mm 6 m/S 759 mmHg 94%
    06:00 +16°C° 0.4 mm 6 m/S 759 mmHg 92%
    07:00 +16°C° 0.4 mm 7 m/S 759 mmHg 91%
    08:00 +17°C° 0.4 mm 7 m/S 760 mmHg 89%
    09:00 +17°C° 0.5 mm 7 m/S 760 mmHg 87%
    10:00 +18°C° 0.5 mm 7 m/S 760 mmHg 85%
    11:00 +18°C° 0.5 mm 8 m/S 760 mmHg 83%
    12:00 +18°C° 0.6 mm 7 m/S 760 mmHg 84%
    13:00 +20°C° 0.6 mm 7 m/S 760 mmHg 85%
    14:00 +20°C° 0.6 mm 7 m/S 760 mmHg 85%
    15:00 +19°C° 0.6 mm 6 m/S 760 mmHg 88%
    16:00 +19°C° 0.6 mm 6 m/S 759 mmHg 90%
    17:00 +17°C° 0.6 mm 6 m/S 759 mmHg 92%
    18:00 +17°C° 0.5 mm 5 m/S 760 mmHg 94%
    19:00 +17°C° 0.5 mm 5 m/S 761 mmHg 96%
    20:00 +17°C° 0.5 mm 4 m/S 761 mmHg 98%
    21:00 +17°C° 0.1 mm 4 m/S 761 mmHg 98%
    22:00 +17°C° 0.1 mm 3 m/S 762 mmHg 98%
    23:00 +17°C° 0.1 mm 3 m/S 762 mmHg 98%

    übermorgen, 6 April, Montag

    Zeit Temperatur Niederschläge Wind Luftdruck Luftfeuchtigkeit
    00:00 +16°C° 0 mm 3 m/S 762 mmHg 97%
    01:00 +15°C° 0 mm 2 m/S 762 mmHg 96%
    02:00 +15°C° 0 mm 2 m/S 762 mmHg 95%
    03:00 +14°C° 0 mm 2 m/S 762 mmHg 94%
    04:00 +14°C° 0 mm 2 m/S 762 mmHg 93%
    05:00 +14°C° 0 mm 2 m/S 762 mmHg 92%
    06:00 +15°C° 0 mm 2 m/S 763 mmHg 86%
    07:00 +17°C° 0 mm 2 m/S 763 mmHg 80%
    08:00 +20°C° 0 mm 1 m/S 764 mmHg 74%
    09:00 +21°C° 0 mm 1 m/S 764 mmHg 66%
    10:00 +23°C° 0 mm 1 m/S 764 mmHg 57%
    11:00 +25°C° 0 mm 1 m/S 765 mmHg 49%
    12:00 +25°C° 0 mm 2 m/S 765 mmHg 50%
    13:00 +25°C° 0 mm 3 m/S 764 mmHg 51%
    14:00 +25°C° 0 mm 3 m/S 764 mmHg 53%
    15:00 +23°C° 0 mm 4 m/S 764 mmHg 57%
    16:00 +22°C° 0 mm 4 m/S 764 mmHg 61%
    17:00 +21°C° 0 mm 4 m/S 764 mmHg 66%
    18:00 +20°C° 0 mm 3 m/S 765 mmHg 71%
    19:00 +18°C° 0 mm 3 m/S 765 mmHg 77%
    20:00 +16°C° 0 mm 3 m/S 766 mmHg 82%
    21:00 +16°C° 0 mm 3 m/S 766 mmHg 82%
    22:00 +16°C° 0 mm 3 m/S 766 mmHg 83%
    23:00 +14°C° 0 mm 3 m/S 766 mmHg 83%

    7 April, Dienstag

    Zeit Temperatur Niederschläge Wind Luftdruck Luftfeuchtigkeit
    00:00 +14°C° 0 mm 3 m/S 766 mmHg 83%
    01:00 +14°C° 0 mm 3 m/S 765 mmHg 84%
    02:00 +14°C° 0 mm 3 m/S 765 mmHg 84%
    03:00 +15°C° 0 mm 2 m/S 765 mmHg 86%
    04:00 +14°C° 0 mm 2 m/S 765 mmHg 87%
    05:00 +14°C° 0 mm 2 m/S 765 mmHg 89%
    06:00 +17°C° 0 mm 2 m/S 765 mmHg 80%
    07:00 +19°C° 0 mm 3 m/S 765 mmHg 71%
    08:00 +21°C° 0 mm 3 m/S 765 mmHg 63%
    09:00 +22°C° 0 mm 3 m/S 765 mmHg 59%
    10:00 +23°C° 0 mm 4 m/S 766 mmHg 55%
    11:00 +25°C° 0 mm 4 m/S 766 mmHg 51%
    12:00 +25°C° 0 mm 4 m/S 765 mmHg 54%
    13:00 +25°C° 0 mm 4 m/S 765 mmHg 56%
    14:00 +25°C° 0 mm 3 m/S 764 mmHg 59%
    15:00 +24°C° 0 mm 3 m/S 764 mmHg 63%
    16:00 +23°C° 0 mm 2 m/S 764 mmHg 67%
    17:00 +21°C° 0 mm 2 m/S 764 mmHg 72%
    18:00 +19°C° 0 mm 2 m/S 764 mmHg 78%
    19:00 +18°C° 0 mm 2 m/S 765 mmHg 83%
    20:00 +18°C° 0 mm 1 m/S 765 mmHg 89%
    21:00 +17°C° 0 mm 2 m/S 765 mmHg 89%
    22:00 +17°C° 0 mm 2 m/S 765 mmHg 90%
    23:00 +16°C° 0 mm 3 m/S 765 mmHg 90%

    8 April, Mittwoch

    Zeit Temperatur Niederschläge Wind Luftdruck Luftfeuchtigkeit
    00:00 +16°C° 0 mm 3 m/S 765 mmHg 90%
    01:00 +16°C° 0 mm 3 m/S 764 mmHg 90%
    02:00 +16°C° 0 mm 3 m/S 764 mmHg 90%
    03:00 +14°C° 0 mm 3 m/S 764 mmHg 90%
    04:00 +14°C° 0 mm 4 m/S 764 mmHg 90%
    05:00 +14°C° 0 mm 4 m/S 764 mmHg 89%
    06:00 +17°C° 0 mm 4 m/S 764 mmHg 83%
    07:00 +18°C° 0 mm 4 m/S 764 mmHg 77%
    08:00 +19°C° 0 mm 4 m/S 764 mmHg 71%
    09:00 +20°C° 0 mm 4 m/S 764 mmHg 66%
    10:00 +22°C° 0 mm 4 m/S 764 mmHg 60%
    11:00 +23°C° 0 mm 4 m/S 764 mmHg 55%
    12:00 +25°C° 0 mm 3 m/S 764 mmHg 52%
    13:00 +25°C° 0 mm 3 m/S 763 mmHg 49%
    14:00 +26°C° 0 mm 2 m/S 763 mmHg 46%
    15:00 +25°C° 0 mm 2 m/S 763 mmHg 51%
    16:00 +24°C° 0 mm 2 m/S 763 mmHg 56%
    17:00 +21°C° 0 mm 2 m/S 763 mmHg 60%
    18:00 +20°C° 0 mm 2 m/S 763 mmHg 67%
    19:00 +18°C° 0 mm 2 m/S 763 mmHg 73%
    20:00 +17°C° 0 mm 2 m/S 764 mmHg 79%
    21:00 +17°C° 0 mm 3 m/S 764 mmHg 81%
    22:00 +17°C° 0 mm 3 m/S 764 mmHg 83%
    23:00 +16°C° 0 mm 3 m/S 764 mmHg 85%

    9 April, Donnerstag

    Zeit Temperatur Niederschläge Wind Luftdruck Luftfeuchtigkeit
    00:00 +15°C° 0 mm 4 m/S 763 mmHg 83%
    01:00 +15°C° 0 mm 4 m/S 763 mmHg 81%
    02:00 +15°C° 0 mm 4 m/S 763 mmHg 79%
    03:00 +15°C° 0 mm 4 m/S 763 mmHg 76%
    04:00 +16°C° 0 mm 3 m/S 763 mmHg 73%
    05:00 +16°C° 0 mm 3 m/S 763 mmHg 70%
    06:00 +17°C° 0 mm 3 m/S 763 mmHg 67%
    07:00 +18°C° 0 mm 3 m/S 763 mmHg 65%
    08:00 +19°C° 0 mm 3 m/S 763 mmHg 62%
    09:00 +20°C° 0 mm 3 m/S 763 mmHg 59%
    10:00 +22°C° 0 mm 3 m/S 764 mmHg 57%
    11:00 +24°C° 0 mm 3 m/S 764 mmHg 54%
    12:00 +25°C° 0 mm 3 m/S 763 mmHg 54%
    13:00 +25°C° 0 mm 2 m/S 763 mmHg 54%
    14:00 +26°C° 0 mm 2 m/S 763 mmHg 54%
    15:00 +25°C° 0 mm 2 m/S 763 mmHg 58%
    16:00 +24°C° 0 mm 2 m/S 763 mmHg 62%
    17:00 +23°C° 0 mm 2 m/S 763 mmHg 66%
    18:00 +21°C° 0 mm 2 m/S 763 mmHg 72%
    19:00 +19°C° 0 mm 2 m/S 763 mmHg 79%
    20:00 +18°C° 0 mm 3 m/S 764 mmHg 85%
    21:00 +18°C° 0 mm 3 m/S 764 mmHg 85%
    22:00 +17°C° 0 mm 3 m/S 764 mmHg 85%
    23:00 +17°C° 0 mm 3 m/S 764 mmHg 86%
    Mehr zeigen